[[{"header":{"parameterUnit":"m.s-1","parameterCategory":1,"la1":30.2991,"la2":30.254,"lo1":-89.0895,"lo2":-89.0444,"dy":0.0017,"dx":0.0017,"nx":28,"ny":28,"refTime":"2023-10-19T09:00:00:Z","depth":0,"parameterNumber":2,"parameterNumberName":"U-component_of_WINDS"},"data":[0,0,0,0,0,0,0,0,0,0,0,0,0,0,0,0,0,0,0,0,0,0,0,0,0,0,0,0,0,0,0,0,0,0,0,0,0,0,0,0,0,0,0,0,0,0,0,0,0,0,0,0,0,0,0,0,0,0,-0.0601,-0.0601,0,-0.0617,-0.0617,-0.0617,-0.0707,-0.0709,-0.0711,-0.0713,-0.0726,-0.0724,-0.0723,0,0,0,0,0,0,0,0,0,0,0,0,0,-0.0645,-0.0644,-0.0601,-0.0601,-0.0601,-0.0617,-0.0617,-0.0617,-0.0707,-0.0709,-0.0712,-0.0714,-0.0727,-0.0725,-0.0723,0,0,0,0,0,0,0,0,0,0,0,0,0,-0.064,-0.0644,-0.0601,-0.0648,-0.0652,-0.0617,-0.0617,-0.0617,-0.0706,-0.0709,-0.0713,-0.0716,-0.0727,-0.0725,-0.0722,-0.0642,0,0,-0.0715,-0.0714,0,0,0,0,0,0,0,0,-0.064,-0.0638,-0.0641,-0.0645,-0.0649,-0.0663,-0.0638,-0.0625,-0.0705,-0.0685,-0.0713,-0.0717,-0.0702,-0.0702,-0.0698,-0.0642,-0.0643,-0.0714,-0.0713,-0.0712,-0.0711,0,0,0,0,0,0,0,-0.064,-0.0638,-0.0607,-0.0641,-0.0646,-0.0667,-0.067,-0.0636,-0.0675,-0.0687,-0.0694,-0.0695,-0.0705,-0.07,-0.0699,-0.0643,-0.0714,-0.0712,-0.0711,-0.071,-0.0523,-0.052,0,0,0,0,0,0,-0.0635,-0.0638,-0.0607,-0.0608,-0.0653,-0.0664,-0.0667,-0.0656,-0.0676,-0.0682,-0.0692,-0.0699,-0.0703,-0.0702,-0.07,-0.0606,-0.0712,-0.0709,-0.0708,-0.0526,-0.0522,-0.0518,0,0,0,0,0,0,-0.0635,-0.0631,-0.0606,-0.0625,-0.0623,-0.066,-0.0646,-0.0654,-0.0649,-0.068,-0.0687,-0.0679,-0.0705,-0.0703,-0.0656,-0.0608,-0.0708,-0.0706,-0.053,-0.0525,-0.052,-0.0419,0,0,0,0,0,0,-0.0636,-0.0631,-0.0601,-0.0623,-0.0622,-0.0562,-0.0643,-0.0652,-0.0645,-0.0654,-0.067,-0.0675,-0.0708,-0.0659,-0.0653,-0.0606,-0.0704,-0.0535,-0.0528,-0.0522,-0.0427,-0.0411,-0.0398,0,0,0,0,0,-0.0637,-0.0571,-0.0599,-0.0595,-0.0585,-0.0559,-0.0558,-0.0598,-0.0641,-0.0611,-0.0631,-0.0675,-0.0615,-0.0653,-0.0648,-0.0599,-0.0538,-0.053,-0.0522,-0.0433,-0.0414,-0.0398,0,0,0,0,0,0,-0.054,-0.0575,-0.0606,-0.0545,-0.0549,-0.0575,-0.0538,-0.0576,-0.0567,-0.0576,-0.0624,-0.0627,-0.0572,-0.0582,-0.0624,-0.0523,-0.0584,-0.0575,-0.0518,-0.05,-0.0486,-0.0484,-0.0702,0,0,0,0,0,-0.0512,-0.0489,-0.052,-0.0463,-0.0464,-0.05,-0.049,-0.0521,-0.0526,-0.0528,-0.0544,-0.0547,-0.0529,-0.0515,-0.05,-0.043,-0.0434,-0.0394,-0.0379,-0.0367,-0.0357,-0.032,-0.0303,-0.0493,-0.0493,-0.0493,0,0,-0.0453,-0.0469,-0.0451,-0.0444,-0.0451,-0.0425,-0.0501,-0.047,-0.0451,-0.0523,-0.0479,-0.0491,-0.0498,-0.0438,-0.0413,-0.0444,-0.0306,-0.0357,-0.0347,-0.0344,-0.0311,-0.0293,-0.0276,-0.0487,-0.0488,-0.0489,0,0,-0.0332,-0.0342,-0.0296,-0.0301,-0.0311,-0.0336,-0.0325,-0.0345,-0.0356,-0.0314,-0.0367,-0.0345,-0.0313,-0.0315,-0.0312,-0.0193,-0.0233,-0.0187,-0.011,-0.0073,-0.0058,-0.0045,-0.0001,0.0015,-0.0178,-0.0178,-0.0177,0,-0.0256,-0.0221,-0.0267,-0.0233,-0.0228,-0.0294,-0.0247,-0.025,-0.0253,-0.0247,-0.0283,-0.0245,-0.0253,-0.0195,-0.0166,-0.0162,-0.015,-0.0184,-0.0057,-0.0044,-0.0032,0.0008,0.0025,-0.0172,-0.0172,-0.0173,-0.0174,0,-0.0127,-0.0102,-0.0063,-0.0066,-0.0058,-0.0017,-0.0056,-0.0042,-0.0073,-0.0094,-0.005,-0.0063,-0.0052,-0.0041,-0.0071,0.0013,-0.0006,-0.0048,-0.011,-0.0008,0.003,0.0045,-0.0163,-0.0166,-0.0167,-0.0169,0,0,0.0057,0.0026,0.0041,0.0039,0.0023,0.0042,0.0079,0.0089,0.0103,0.0102,0.0133,0.0161,0.0121,0.0125,0.0094,0.0126,0.0222,0.0079,0.0078,0.0107,0.0314,0.0348,0.0366,0.0194,0.0197,0.0199,0.0315,0,0.0174,0.0235,0.0194,0.0262,0.0285,0.0223,0.0255,0.0249,0.023,0.0248,0.0227,0.0248,0.0193,0.0195,0.0224,0.0204,0.0263,0.0195,0.0224,0.0225,0.0229,0.0386,0.0421,0.0532,0.033,0.0332,0.0334,0,0.0319,0.0323,0.0393,0.0372,0.038,0.041,0.0415,0.0432,0.0424,0.0408,0.0412,0.0372,0.0408,0.0345,0.0394,0.0349,0.0358,0.035,0.0353,0.0356,0.0287,0.0394,0.0566,0.0583,0.0356,0.0354,0.0353,0,0.0448,0.0471,0.0516,0.0515,0.0491,0.0514,0.0505,0.0493,0.0502,0.0506,0.0511,0.0521,0.0526,0.0535,0.0499,0.0456,0.0553,0.0487,0.0542,0.0543,0.0567,0.0566,0.0744,0.057,0.057,0.057,0.057,0,0.0583,0.0629,0.0573,0.0601,0.065,0.0603,0.0653,0.0638,0.0628,0.0652,0.0599,0.0623,0.0573,0.0593,0.0565,0.0611,0.0613,0.0602,0.0595,0.0608,0.061,0.0615,0.0607,0.0574,0.0573,0.0572,0.0572,0,0.0736,0.07,0.0745,0.0718,0.0712,0.075,0.0727,0.0752,0.0728,0.076,0.0765,0.0729,0.0749,0.0713,0.0729,0.071,0.0774,0.0754,0.0777,0.0772,0.0829,0.0824,0.1017,0.104,0.0851,0.0853,0.0854,0,0.0826,0.086,0.0835,0.0847,0.0841,0.0861,0.0868,0.0822,0.0833,0.0825,0.0852,0.0867,0.0877,0.0912,0.0888,0.0899,0.088,0.0947,0.0882,0.0894,0.0883,0.0882,0.0885,0.0961,0.0963,0.0965,0.0967,0,0.099,0.097,0.0982,0.0988,0.0998,0.1001,0.1001,0.1014,0.0965,0.0979,0.0998,0.1006,0.1021,0.1037,0.1043,0.1035,0.0994,0.0987,0.1,0.1015,0.1028,0.1023,0.0815,0.0983,0.0981,0.098,0.0979,0.0979,0.1115,0.1142,0.1128,0.1144,0.1138,0.1138,0.116,0.1138,0.1153,0.1161,0.1133,0.1159,0.115,0.1153,0.1149,0.1169,0.1139,0.1159,0.1164,0.117,0.118,0.1023,0.117,0.1169,0.1169,0.1168,0.1168,0,0.1277,0.1264,0.1279,0.1279,0.1291,0.1248,0.1245,0.1258,0.1281,0.1275,0.1285,0.1308,0.1323,0.1299,0.131,0.1331,0.1312,0.1336,0.1335,0.1333,0.1205,0.1192,0.1351,0.1351,0.135,0.135,0.135,0.135,0.1362,0.1405,0.1384,0.1424,0.1411,0.1435,0.1437,0.1437,0.1432,0.1458,0.147,0.1454,0.1441,0.145,0.1463,0.1455,0.1463,0.1493,0.148,0.136,0.1342,0.1326,0.1314,0.1495,0.1495,0.1607,0.1608,0.1609]},{"header":{"parameterUnit":"m.s-1","parameterCategory":1,"la1":30.2991,"la2":30.254,"lo1":-89.0895,"lo2":-89.0444,"dy":0.0017,"dx":0.0017,"nx":28,"ny":28,"refTime":"2023-10-19T09:00:00:Z","depth":0,"parameterNumber":3,"parameterNumberName":"V-component_of_WINDS"},"data":[0,0,0,0,0,0,0,0,0,0,0,0,0,0,0,0,0,0,0,0,0,0,0,0,0,0,0,0,0,0,0,0,0,0,0,0,0,0,0,0,0,0,0,0,0,0,0,0,0,0,0,0,0,0,0,0,0,0,0.696,0.696,0,0.6928,0.6927,0.6927,0.6795,0.6792,0.6789,0.6786,0.6755,0.6757,0.6759,0,0,0,0,0,0,0,0,0,0,0,0,0,0.691,0.6911,0.696,0.696,0.6959,0.6928,0.6927,0.6927,0.6796,0.6792,0.6789,0.6785,0.6754,0.6756,0.6759,0,0,0,0,0,0,0,0,0,0,0,0,0,0.691,0.6912,0.696,0.689,0.6883,0.6928,0.6927,0.6927,0.6797,0.6792,0.6788,0.6783,0.6753,0.6756,0.6759,0.6869,0,0,0.6768,0.677,0,0,0,0,0,0,0,0,0.691,0.6912,0.6901,0.6895,0.6888,0.6861,0.6898,0.6907,0.6798,0.683,0.6786,0.6781,0.6794,0.6793,0.6797,0.6867,0.6866,0.6769,0.677,0.6772,0.6772,0,0,0,0,0,0,0,0.691,0.6913,0.6947,0.6901,0.6893,0.6861,0.6856,0.6899,0.6838,0.6827,0.6817,0.6815,0.6789,0.6795,0.6795,0.6865,0.6768,0.6771,0.6773,0.6774,0.7024,0.7029,0,0,0,0,0,0,0.692,0.6913,0.6948,0.6946,0.6888,0.6865,0.686,0.6874,0.6837,0.6827,0.6819,0.6809,0.6792,0.6792,0.6794,0.692,0.6772,0.6774,0.6776,0.702,0.7026,0.7031,0,0,0,0,0,0,0.6919,0.6924,0.6949,0.6927,0.6928,0.6871,0.6888,0.6876,0.6881,0.6831,0.682,0.6835,0.6788,0.679,0.6851,0.6917,0.6776,0.6778,0.7014,0.7021,0.7028,0.7175,0,0,0,0,0,0,0.6919,0.6925,0.6966,0.6929,0.693,0.7008,0.6892,0.6878,0.6886,0.6873,0.6843,0.6834,0.6785,0.6847,0.6854,0.6919,0.6781,0.7008,0.7017,0.7026,0.7164,0.7186,0.7205,0,0,0,0,0,0.6917,0.7008,0.6969,0.6973,0.6979,0.7012,0.7012,0.6953,0.6892,0.6933,0.6901,0.6835,0.6909,0.6855,0.6861,0.6928,0.7003,0.7015,0.7025,0.7154,0.7182,0.7205,0,0,0,0,0,0,0.7055,0.7002,0.6958,0.704,0.7031,0.6989,0.7039,0.6983,0.6992,0.6979,0.6906,0.69,0.6973,0.6956,0.6897,0.7032,0.6945,0.6958,0.7041,0.7066,0.7087,0.709,0.6783,0,0,0,0,0,0.7095,0.7125,0.7077,0.7154,0.7152,0.7097,0.7108,0.7063,0.7052,0.7048,0.702,0.7012,0.7033,0.7048,0.7065,0.716,0.7152,0.7209,0.723,0.7247,0.726,0.7309,0.7335,0.7067,0.7067,0.7066,0,0,0.7178,0.7153,0.7176,0.7181,0.7169,0.7203,0.7095,0.7134,0.7159,0.7054,0.711,0.709,0.7076,0.7155,0.7188,0.7143,0.7332,0.7261,0.7275,0.7278,0.7323,0.7349,0.7371,0.7074,0.7073,0.7072,0,0,0.7346,0.733,0.7392,0.7382,0.7365,0.7328,0.7343,0.731,0.7292,0.7348,0.727,0.7298,0.7336,0.7329,0.7331,0.7496,0.7437,0.7504,0.7613,0.7662,0.7684,0.7702,0.7762,0.7785,0.7516,0.7516,0.7517,0,0.7451,0.7498,0.7432,0.7477,0.7481,0.7387,0.7451,0.7444,0.7435,0.744,0.739,0.7436,0.7419,0.7496,0.7537,0.754,0.7556,0.7507,0.7686,0.7703,0.772,0.7776,0.7799,0.7525,0.7524,0.7523,0.7522,0,0.7629,0.7662,0.7715,0.7707,0.7718,0.7772,0.7714,0.7733,0.7687,0.7656,0.7714,0.7691,0.7701,0.7716,0.7672,0.7787,0.776,0.7699,0.761,0.7755,0.7807,0.7828,0.7537,0.7534,0.7531,0.7529,0,0,0.7884,0.7838,0.7859,0.7855,0.7829,0.7854,0.7904,0.7914,0.7932,0.7928,0.7969,0.8003,0.7947,0.7949,0.7902,0.7946,0.808,0.7879,0.7878,0.7919,0.8207,0.8255,0.8281,0.804,0.8044,0.8047,0.8209,0,0.8045,0.8127,0.8069,0.8162,0.8192,0.8104,0.8147,0.8137,0.8108,0.8131,0.8099,0.8125,0.8047,0.8048,0.8087,0.8056,0.8138,0.8043,0.8078,0.8081,0.8086,0.8308,0.8357,0.8511,0.8229,0.8232,0.8235,0,0.8244,0.8249,0.8345,0.8313,0.8324,0.8364,0.8369,0.8391,0.8378,0.8354,0.8356,0.8299,0.8346,0.8258,0.8323,0.826,0.8271,0.8258,0.8262,0.8265,0.8168,0.8317,0.8559,0.8583,0.8266,0.8263,0.8261,0,0.8422,0.8452,0.8513,0.8512,0.8477,0.8507,0.8494,0.8476,0.8486,0.849,0.8496,0.8506,0.8512,0.8522,0.8469,0.8409,0.8542,0.8448,0.8524,0.8526,0.8557,0.8556,0.8806,0.8562,0.8562,0.8562,0.8561,0,0.8609,0.8671,0.8593,0.8631,0.8699,0.8631,0.87,0.8677,0.8662,0.8694,0.8618,0.865,0.8578,0.8603,0.8562,0.8623,0.8626,0.8609,0.8597,0.8616,0.8619,0.8623,0.8612,0.8568,0.8566,0.8565,0.8564,0,0.8819,0.8769,0.883,0.8792,0.8784,0.8835,0.8802,0.8836,0.8802,0.8845,0.8851,0.8798,0.8824,0.8772,0.879,0.8763,0.8849,0.882,0.8854,0.8846,0.8925,0.8919,0.9187,0.922,0.8955,0.8958,0.896,0,0.8942,0.8988,0.8955,0.8971,0.8962,0.8988,0.8998,0.8934,0.8947,0.8935,0.8971,0.899,0.9002,0.9047,0.9011,0.9026,0.8997,0.909,0.8999,0.9017,0.9,0.8999,0.9004,0.911,0.9113,0.9115,0.9118,0,0.9166,0.9139,0.9156,0.9165,0.9179,0.9182,0.9181,0.9198,0.913,0.9149,0.9174,0.9183,0.9202,0.9223,0.9229,0.9215,0.9156,0.9147,0.9165,0.9186,0.9204,0.9196,0.8907,0.9141,0.9139,0.9137,0.9136,0.9135,0.9337,0.9374,0.9357,0.9378,0.937,0.937,0.9401,0.937,0.939,0.94,0.9361,0.9396,0.9381,0.9383,0.9376,0.9402,0.9361,0.9387,0.9394,0.9402,0.9416,0.9199,0.9403,0.9402,0.9402,0.9401,0.94,0,0.9558,0.9543,0.9563,0.9563,0.958,0.9522,0.9517,0.9536,0.9567,0.9558,0.9571,0.9601,0.9621,0.9586,0.96,0.9628,0.9602,0.9634,0.9632,0.9631,0.9451,0.9434,0.9656,0.9656,0.9656,0.9656,0.9656,0.9656,0.9675,0.9735,0.9707,0.9762,0.9745,0.9778,0.9781,0.9781,0.9774,0.981,0.9826,0.9803,0.9784,0.9797,0.9813,0.9802,0.9811,0.9854,0.9835,0.9668,0.9643,0.9619,0.9603,0.9856,0.9857,1.0011,1.0013,1.0014]}]]